| time (UTC) | temp C | wind direction | speed KPH | gust KPH | rain 1hr cm | rain 24hr cm | rain mn cm | humidity % | barometer mb |
| 20260506153603 | 13 | 331 | 3.2 | 14.5 | 0.00 | 0.00 | 0.00 | 62 | 1012.0 |
| 20260506152706 | 13 | 336 | 3.2 | 12.9 | 0.00 | 0.00 | 0.00 | 63 | 1012.0 |
| 20260506151806 | 12 | 350 | 3.2 | 9.7 | 0.00 | 0.00 | 0.00 | 63 | 1012.0 |
| 20260506150904 | 12 | 21 | 3.2 | 12.9 | 0.00 | 0.00 | 0.00 | 65 | 1012.1 |
| 20260506150003 | 12 | 12 | 3.2 | 14.5 | 0.00 | 0.00 | 0.00 | 65 | 1012.0 |
| 20260506145403 | 12 | 21 | 3.2 | 9.7 | 0.00 | 0.00 | 0.00 | 65 | 1012.0 |
| 20260506144505 | 12 | 52 | 3.2 | 12.9 | 0.00 | 0.00 | 0.00 | 64 | 1012.0 |
| 20260506143604 | 12 | 22 | 3.2 | 12.9 | 0.00 | 0.00 | 0.00 | 64 | 1012.0 |
| 20260506142918 | 13 | 13 | 3.2 | 14.5 | 0.00 | 0.00 | 0.00 | 64 | 1012.1 |
| 20260506141805 | 13 | 19 | 4.8 | 14.5 | 0.00 | 0.00 | 0.00 | 61 | 1011.9 |
| 20260506140908 | 14 | 17 | 4.8 | 12.9 | 0.00 | 0.00 | 0.00 | 60 | 1011.8 |
| 20260506140003 | 13 | 1 | 3.2 | 8.0 | 0.00 | 0.00 | 0.00 | 61 | 1011.8 |
| 20260506135617 | 13 | 7 | 3.2 | 8.0 | 0.00 | 0.00 | 0.00 | 60 | 1011.8 |
| 20260506134505 | 13 | 12 | 3.2 | 12.9 | 0.00 | 0.00 | 0.00 | 60 | 1011.9 |
| 20260506133605 | 13 | 359 | 3.2 | 11.3 | 0.00 | 0.00 | 0.00 | 60 | 1011.9 |
| 20260506132705 | 13 | 354 | 3.2 | 12.9 | 0.00 | 0.00 | 0.00 | 61 | 1011.9 |
| 20260506131803 | 14 | 358 | 4.8 | 14.5 | 0.00 | 0.00 | 0.00 | 60 | 1011.9 |
| 20260506130905 | 14 | 5 | 4.8 | 16.1 | 0.00 | 0.00 | 0.00 | 59 | 1011.8 |
| 20260506130003 | 14 | 23 | 4.8 | 19.3 | 0.00 | 0.00 | 0.00 | 56 | 1011.9 |
| 20260506125405 | 14 | 30 | 4.8 | 19.3 | 0.00 | 0.00 | 0.00 | 56 | 1012.0 |
| 20260506124714 | 14 | 23 | 3.2 | 12.9 | 0.00 | 0.00 | 0.00 | 59 | 1012.0 |
| 20260506123603 | 14 | 35 | 3.2 | 12.9 | 0.00 | 0.00 | 0.00 | 59 | 1012.0 |
| 20260506122914 | 13 | 13 | 4.8 | 17.7 | 0.00 | 0.00 | 0.00 | 61 | 1011.9 |
| 20260506122017 | 13 | 350 | 4.8 | 16.1 | 0.00 | 0.00 | 0.00 | 60 | 1012.0 |
| 20260506120905 | 14 | 4 | 4.8 | 16.1 | 0.00 | 0.00 | 0.00 | 60 | 1012.0 |
| 20260506120003 | 13 | 342 | 4.8 | 14.5 | 0.00 | 0.00 | 0.00 | 61 | 1012.0 |
| 20260506115403 | 13 | 346 | 4.8 | 16.1 | 0.00 | 0.00 | 0.00 | 62 | 1012.0 |
| 20260506114504 | 13 | 1 | 4.8 | 14.5 | 0.00 | 0.00 | 0.00 | 60 | 1012.0 |
| 20260506113818 | 14 | 7 | 4.8 | 12.9 | 0.00 | 0.00 | 0.00 | 58 | 1012.0 |
| 20260506112703 | 14 | 345 | 4.8 | 19.3 | 0.00 | 0.00 | 0.00 | 56 | 1012.0 |
| 20260506112017 | 14 | 37 | 4.8 | 14.5 | 0.00 | 0.00 | 0.00 | 58 | 1011.9 |
| 20260506110903 | 13 | 346 | 4.8 | 14.5 | 0.00 | 0.00 | 0.00 | 57 | 1012.0 |
| 20260506110005 | 13 | 4 | 3.2 | 11.3 | 0.00 | 0.00 | 0.00 | 58 | 1012.0 |
| 20260506105403 | 13 | 351 | 3.2 | 11.3 | 0.00 | 0.00 | 0.00 | 60 | 1012.0 |
| 20260506104503 | 13 | 336 | 6.4 | 22.5 | 0.00 | 0.00 | 0.00 | 58 | 1012.0 |
| 20260506103603 | 13 | 34 | 4.8 | 19.3 | 0.00 | 0.00 | 0.00 | 58 | 1011.9 |
| 20260506102916 | 13 | 348 | 4.8 | 19.3 | 0.00 | 0.00 | 0.00 | 57 | 1011.9 |
| 20260506102018 | 13 | 347 | 4.8 | 19.3 | 0.00 | 0.00 | 0.00 | 58 | 1012.0 |
| 20260506100905 | 13 | 3 | 6.4 | 22.5 | 0.00 | 0.00 | 0.00 | 58 | 1012.1 |
| 20260506100004 | 12 | 2 | 6.4 | 19.3 | 0.00 | 0.00 | 0.00 | 59 | 1011.9 |
| 20260506095405 | 12 | 3 | 4.8 | 19.3 | 0.00 | 0.00 | 0.00 | 59 | 1012.2 |
| 20260506094505 | 12 | 333 | 4.8 | 17.7 | 0.00 | 0.00 | 0.00 | 62 | 1012.1 |
| 20260506093608 | 12 | 336 | 6.4 | 16.1 | 0.00 | 0.00 | 0.00 | 60 | 1012.1 |
| 20260506092705 | 12 | 338 | 3.2 | 16.1 | 0.00 | 0.00 | 0.00 | 61 | 1012.1 |
| 20260506091805 | 12 | 357 | 4.8 | 14.5 | 0.00 | 0.00 | 0.00 | 62 | 1011.9 |
| 20260506091116 | 12 | 344 | 6.4 | 16.1 | 0.00 | 0.00 | 0.00 | 61 | 1011.9 |
| 20260506090003 | 12 | 327 | 4.8 | 19.3 | 0.00 | 0.00 | 0.00 | 59 | 1011.9 |
| 20260506085403 | 12 | 358 | 4.8 | 17.7 | 0.00 | 0.00 | 0.00 | 63 | 1011.8 |
| 20260506084717 | 11 | 7 | 3.2 | 16.1 | 0.00 | 0.00 | 0.00 | 65 | 1011.8 |
| 20260506083603 | 11 | 339 | 4.8 | 19.3 | 0.00 | 0.00 | 0.00 | 64 | 1011.8 |
| 20260506082705 | 12 | 349 | 3.2 | 16.1 | 0.00 | 0.00 | 0.00 | 65 | 1011.6 |
| 20260506081805 | 12 | 330 | 3.2 | 19.3 | 0.00 | 0.00 | 0.00 | 66 | 1011.6 |
| 20260506080905 | 11 | 343 | 4.8 | 12.9 | 0.00 | 0.00 | 0.00 | 68 | 1011.7 |
| 20260506080219 | 11 | 339 | 4.8 | 12.9 | 0.00 | 0.00 | 0.00 | 69 | 1011.6 |
| 20260506072704 | 10 | 338 | 3.2 | 9.7 | 0.00 | 0.00 | 0.00 | 76 | 1011.9 |
| 20260506071805 | 9 | 2 | 1.6 | 8.0 | 0.00 | 0.00 | 0.00 | 76 | 1011.9 |
| 20260506070903 | 9 | 9 | 1.6 | 16.1 | 0.00 | 0.00 | 0.00 | 77 | 1011.9 |
| 20260506061803 | 10 | 322 | 3.2 | 14.5 | 0.00 | 0.00 | 0.00 | 74 | 1011.7 |
| 20260506060903 | 9 | 329 | 1.6 | 12.9 | 0.00 | 0.00 | 0.00 | 76 | 1011.6 |
| 20260506050905 | 8 | 3 | 1.6 | 8.0 | 0.00 | 0.00 | 0.00 | 80 | 1011.4 |
| 20260506044503 | 8 | 1 | 1.6 | 12.9 | 0.00 | 0.00 | 0.00 | 79 | 1011.2 |
| 20260506043606 | 8 | 358 | 1.6 | 12.9 | 0.00 | 0.00 | 0.00 | 79 | 1011.3 |
| 20260506042914 | 8 | 358 | 1.6 | 12.9 | 0.00 | 0.00 | 0.00 | 79 | 1011.3 |
| 20260506041805 | 8 | 10 | 1.6 | 9.7 | 0.00 | 0.00 | 0.00 | 79 | 1011.2 |
| 20260506040903 | 8 | 17 | 1.6 | 4.8 | 0.00 | 0.00 | 0.00 | 79 | 1011.0 |
| 20260506040003 | 8 | 23 | 3.2 | 9.7 | 0.00 | 0.00 | 0.00 | 78 | 1011.0 |
| 20260506035403 | 8 | 1 | 1.6 | 6.4 | 0.00 | 0.00 | 0.00 | 77 | 1011.0 |
| 20260506034505 | 9 | 356 | 1.6 | 8.0 | 0.00 | 0.00 | 0.00 | 76 | 1011.0 |
| 20260506033603 | 9 | 29 | 1.6 | 9.7 | 0.00 | 0.00 | 0.00 | 75 | 1011.0 |
| 20260506032915 | 9 | 41 | 1.6 | 9.7 | 0.00 | 0.00 | 0.00 | 75 | 1011.1 |
| 20260506032017 | 9 | 6 | 3.2 | 12.9 | 0.00 | 0.00 | 0.00 | 75 | 1011.0 |
| 20260506030908 | 9 | 4 | 3.2 | 12.9 | 0.00 | 0.00 | 0.00 | 77 | 1011.0 |
| 20260506030005 | 10 | 13 | 3.2 | 12.9 | 0.00 | 0.00 | 0.00 | 78 | 1011.0 |
| 20260506025403 | 10 | 18 | 1.6 | 9.7 | 0.00 | 0.00 | 0.00 | 78 | 1011.0 |
| 20260506024504 | 10 | 60 | 1.6 | 6.4 | 0.00 | 0.00 | 0.00 | 78 | 1011.1 |
| 20260506023605 | 10 | 22 | 3.2 | 11.3 | 0.00 | 0.00 | 0.00 | 78 | 1011.2 |
| 20260506022705 | 10 | 358 | 3.2 | 11.3 | 0.00 | 0.00 | 0.00 | 79 | 1011.3 |
| 20260506021804 | 10 | 7 | 3.2 | 12.9 | 0.00 | 0.00 | 0.00 | 79 | 1011.3 |
| 20260506020905 | 10 | 29 | 3.2 | 12.9 | 0.00 | 0.00 | 0.00 | 78 | 1011.3 |
| 20260506020006 | 10 | 8 | 1.6 | 4.8 | 0.00 | 0.00 | 0.00 | 78 | 1011.4 |
| 20260506015403 | 10 | 30 | 1.6 | 6.4 | 0.00 | 0.00 | 0.00 | 78 | 1011.4 |
| 20260506014505 | 10 | 19 | 1.6 | 8.0 | 0.00 | 0.00 | 0.00 | 78 | 1011.4 |
| 20260506013603 | 10 | 2 | 1.6 | 9.7 | 0.00 | 0.00 | 0.00 | 78 | 1011.4 |
| 20260506012705 | 10 | 17 | 1.6 | 6.4 | 0.00 | 0.00 | 0.00 | 77 | 1011.5 |
| 20260506011805 | 10 | 9 | 1.6 | 14.5 | 0.00 | 0.00 | 0.00 | 76 | 1011.6 |
| 20260506011116 | 10 | 14 | 1.6 | 8.0 | 0.00 | 0.00 | 0.00 | 76 | 1011.6 |
| 20260506010005 | 10 | 52 | 1.6 | 11.3 | 0.00 | 0.00 | 0.00 | 77 | 1011.6 |
| 20260506005403 | 10 | 78 | 1.6 | 11.3 | 0.00 | 0.00 | 0.00 | 76 | 1011.5 |
| 20260506004505 | 10 | 97 | 1.6 | 6.4 | 0.00 | 0.00 | 0.00 | 76 | 1011.6 |
| 20260506003604 | 10 | 36 | 1.6 | 6.4 | 0.00 | 0.00 | 0.00 | 76 | 1011.7 |
| 20260506002705 | 10 | 40 | 1.6 | 9.7 | 0.00 | 0.00 | 0.00 | 75 | 1011.7 |
| 20260506001806 | 10 | 48 | 3.2 | 12.9 | 0.00 | 0.00 | 0.00 | 75 | 1011.8 |
| 20260506000904 | 10 | 50 | 1.6 | 11.3 | 0.00 | 0.00 | 0.00 | 75 | 1011.8 |
| 20260506000005 | 10 | 58 | 3.2 | 12.9 | 0.00 | 0.00 | 0.00 | 75 | 1011.9 |
| 20260505235615 | 11 | 60 | 3.2 | 12.9 | 0.00 | 0.00 | 0.00 | 75 | 1011.8 |
| 20260505234505 | 11 | 50 | 3.2 | 12.9 | 0.00 | 0.00 | 0.00 | 74 | 1011.8 |
| 20260505233604 | 11 | 31 | 4.8 | 20.9 | 0.00 | 0.00 | 0.00 | 73 | 1011.9 |
| 20260505232917 | 11 | 40 | 3.2 | 12.9 | 0.00 | 0.00 | 0.00 | 74 | 1011.8 |
| 20260505231805 | 11 | 45 | 3.2 | 11.3 | 0.00 | 0.00 | 0.00 | 77 | 1011.7 |
| 20260505230903 | 11 | 21 | 3.2 | 17.7 | 0.00 | 0.00 | 0.00 | 78 | 1011.7 |
| 20260505230003 | 11 | 54 | 1.6 | 12.9 | 0.00 | 0.00 | 0.00 | 80 | 1011.8 |
| 20260505225405 | 11 | 80 | 1.6 | 6.4 | 0.00 | 0.00 | 0.00 | 81 | 1011.7 |
| 20260505224505 | 11 | 83 | 1.6 | 9.7 | 0.00 | 0.00 | 0.00 | 80 | 1011.8 |
| 20260505223816 | 11 | 88 | 3.2 | 11.3 | 0.00 | 0.00 | 0.00 | 80 | 1011.7 |
| 20260505222706 | 11 | 58 | 1.6 | 8.0 | 0.00 | 0.00 | 0.00 | 79 | 1011.7 |
| 20260505221806 | 11 | 35 | 1.6 | 8.0 | 0.00 | 0.00 | 0.00 | 79 | 1011.8 |
| 20260505220908 | 11 | 52 | 3.2 | 12.9 | 0.00 | 0.00 | 0.00 | 79 | 1011.8 |
| 20260505220007 | 12 | 20 | 3.2 | 19.3 | 0.00 | 0.00 | 0.00 | 79 | 1011.9 |
| 20260505215403 | 12 | 5 | 4.8 | 19.3 | 0.00 | 0.00 | 0.00 | 77 | 1011.8 |
| 20260505214503 | 12 | 41 | 3.2 | 14.5 | 0.00 | 0.00 | 0.00 | 73 | 1011.7 |
| 20260505213604 | 12 | 69 | 3.2 | 8.0 | 0.00 | 0.00 | 0.00 | 72 | 1011.6 |
| 20260505212703 | 12 | 78 | 1.6 | 9.7 | 0.00 | 0.00 | 0.00 | 73 | 1011.6 |
| 20260505211805 | 12 | 90 | 1.6 | 6.4 | 0.00 | 0.00 | 0.00 | 73 | 1011.6 |
| 20260505211118 | 12 | 90 | 1.6 | 6.4 | 0.00 | 0.00 | 0.00 | 73 | 1011.5 |
| 20260505210003 | 12 | 90 | 1.6 | 9.7 | 0.00 | 0.00 | 0.00 | 74 | 1011.6 |
| 20260505205406 | 12 | 89 | 1.6 | 8.0 | 0.00 | 0.00 | 0.00 | 74 | 1011.5 |
| 20260505204505 | 12 | 83 | 4.8 | 16.1 | 0.00 | 0.00 | 0.00 | 73 | 1011.5 |
| 20260505203604 | 12 | 89 | 3.2 | 16.1 | 0.00 | 0.00 | 0.00 | 70 | 1011.5 |
| 20260505202703 | 13 | 85 | 1.6 | 6.4 | 0.00 | 0.00 | 0.00 | 69 | 1011.4 |
| 20260505201805 | 13 | 85 | 3.2 | 9.7 | 0.00 | 0.00 | 0.00 | 68 | 1011.2 |
| 20260505200903 | 13 | 81 | 3.2 | 6.4 | 0.00 | 0.00 | 0.00 | 68 | 1011.1 |
| 20260505200005 | 13 | 82 | 4.8 | 11.3 | 0.00 | 0.00 | 0.00 | 66 | 1011.0 |
| 20260505195403 | 13 | 88 | 3.2 | 9.7 | 0.00 | 0.00 | 0.00 | 65 | 1010.9 |
| 20260505194503 | 13 | 76 | 3.2 | 8.0 | 0.00 | 0.00 | 0.00 | 63 | 1010.8 |
| 20260505193605 | 13 | 78 | 1.6 | 8.0 | 0.00 | 0.00 | 0.00 | 62 | 1010.6 |
| 20260505192915 | 13 | 82 | 0.0 | 6.4 | 0.00 | 0.00 | 0.00 | 62 | 1010.5 |
| 20260505192017 | 14 | 82 | 0.0 | 3.2 | 0.00 | 0.00 | 0.00 | 62 | 1010.3 |
| 20260505190905 | 14 | 82 | 1.6 | 4.8 | 0.00 | 0.00 | 0.00 | 61 | 1010.1 |
| 20260505190003 | 14 | 82 | 1.6 | 4.8 | 0.00 | 0.00 | 0.00 | 61 | 1010.0 |
| 20260505185403 | 14 | 82 | 0.0 | 3.2 | 0.00 | 0.00 | 0.00 | 61 | 1010.0 |
| 20260505184716 | 14 | 82 | 1.6 | 4.8 | 0.00 | 0.00 | 0.00 | 61 | 1010.0 |
| 20260505183604 | 14 | 82 | 1.6 | 4.8 | 0.00 | 0.00 | 0.00 | 60 | 1010.0 |
| 20260505182705 | 14 | 82 | 1.6 | 4.8 | 0.00 | 0.00 | 0.00 | 60 | 1009.9 |
| 20260505181805 | 14 | 82 | 3.2 | 6.4 | 0.00 | 0.00 | 0.00 | 60 | 1009.9 |
| 20260505180903 | 14 | 85 | 3.2 | 11.3 | 0.00 | 0.00 | 0.00 | 60 | 1010.1 |
| 20260505180003 | 15 | 94 | 3.2 | 9.7 | 0.00 | 0.00 | 0.00 | 59 | 1010.1 |
| 20260505175403 | 15 | 97 | 3.2 | 9.7 | 0.00 | 0.00 | 0.00 | 60 | 1010.1 |
| 20260505174503 | 15 | 94 | 3.2 | 11.3 | 0.00 | 0.00 | 0.00 | 59 | 1010.1 |
| 20260505173603 | 15 | 93 | 3.2 | 12.9 | 0.00 | 0.00 | 0.00 | 58 | 1010.2 |
| 20260505172703 | 15 | 90 | 1.6 | 6.4 | 0.00 | 0.00 | 0.00 | 58 | 1010.2 |
| 20260505171805 | 15 | 75 | 3.2 | 8.0 | 0.00 | 0.00 | 0.00 | 57 | 1010.2 |
| 20260505170903 | 15 | 78 | 3.2 | 8.0 | 0.00 | 0.00 | 0.00 | 57 | 1010.2 |
| 20260505170004 | 15 | 70 | 1.6 | 8.0 | 0.00 | 0.00 | 0.00 | 57 | 1010.2 |
| 20260505165403 | 15 | 73 | 1.6 | 4.8 | 0.00 | 0.00 | 0.00 | 57 | 1010.2 |
| 20260505164717 | 15 | 77 | 1.6 | 4.8 | 0.00 | 0.00 | 0.00 | 57 | 1010.3 |
| 20260505163814 | 16 | 76 | 3.2 | 8.0 | 0.00 | 0.00 | 0.00 | 56 | 1010.2 |
| 20260505162705 | 16 | 75 | 1.6 | 6.4 | 0.00 | 0.00 | 0.00 | 56 | 1010.2 |
| 20260505161805 | 16 | 77 | 1.6 | 6.4 | 0.00 | 0.00 | 0.00 | 56 | 1010.2 |
| 20260505160903 | 16 | 77 | 1.6 | 6.4 | 0.00 | 0.00 | 0.00 | 56 | 1010.2 |
| 20260505160219 | 16 | 74 | 3.2 | 9.7 | 0.00 | 0.00 | 0.00 | 55 | 1010.2 |